Weather reports worldwide

Advertisment
Coleshill, United Kingdom (3535): temperature & dewpoint: 18.08.2017 00:00:00 - 24.08.2017 00:00:00 (BST)Coleshill, United Kingdom (3535): temperature -20cm & temperature -100cm: 18.08.2017 00:00:00 - 24.08.2017 00:00:00 (BST)Coleshill, United Kingdom (3535): wind speed & gusts: 18.08.2017 00:00:00 - 24.08.2017 00:00:00 (BST)Coleshill, United Kingdom (3535): wind direction: 18.08.2017 00:00:00 - 24.08.2017 00:00:00 (BST)Coleshill, United Kingdom (3535): reduced air pressure: 18.08.2017 00:00:00 - 24.08.2017 00:00:00 (BST)Coleshill, United Kingdom (3535): visibility: 18.08.2017 00:00:00 - 24.08.2017 00:00:00 (BST)Coleshill, United Kingdom (3535): precipitation: 18.08.2017 00:00:00 - 24.08.2017 00:00:00 (BST)
Date & Time tt [°C] td [°C] tt -20cm [°C] tt -100cm [°C] ff [km/h] ff [kn] fx [km/h] fx [kn] dd ppp [hPa] vv [km] rr [mm]
24.08.2017 00:00:00 - - - - - - - - - - - -
23.08.2017 23:00:00 14,9 11,9 - - 5 3 - - SW 1014,6 35 0,0
23.08.2017 22:00:00 15,7 12,1 - - 5 3 - - SW 1014,2 35 0,0
23.08.2017 21:00:00 16,7 12,1 - - 5 3 - - WSW 1013,9 40 0,0
23.08.2017 20:00:00 18,0 11,7 - - 8 4 - - WSW 1013,2 40 0,0
23.08.2017 19:00:00 19,3 12,3 - - 11 6 - - W 1013,0 50 0,0
23.08.2017 18:00:00 20,8 12,5 - - 9 5 - - WSW 1012,6 50 0,0
23.08.2017 17:00:00 20,9 11,7 - - 11 6 - - WSW 1012,6 50 0,0
23.08.2017 16:00:00 22,0 11,0 - - 15 8 - - WSW 1012,6 50 0,0
23.08.2017 15:00:00 20,9 12,3 - - 15 8 - - W 1012,5 50 0,0
23.08.2017 14:00:00 21,0 12,0 - - 11 6 - - W 1012,3 50 0,0
23.08.2017 13:00:00 20,6 14,5 - - 13 7 - - W 1012,4 45 0,0
23.08.2017 12:00:00 17,7 14,3 - - 11 6 - - W 1012,3 45 0,0
23.08.2017 11:00:00 18,8 17,7 - - 5 3 - - SW 1012,0 14 0,0
23.08.2017 10:00:00 16,8 16,4 18,0 16,7 5 3 - - SSW 1011,7 1,8 0,0
23.08.2017 09:00:00 16,3 15,6 - - 11 6 - - S 1011,7 2,5 0,0
23.08.2017 08:00:00 16,4 15,3 - - 8 4 - - S 1011,6 5 0,0
23.08.2017 07:00:00 16,0 15,2 - - 5 3 - - SE 1011,6 5 0,0
23.08.2017 06:00:00 15,7 14,9 - - 5 3 - - SSE 1011,7 5 0,0
23.08.2017 05:00:00 15,9 15,1 - - 5 3 - - SE 1011,9 6 0,0
23.08.2017 04:00:00 15,8 15,0 - - 4 2 - - SE 1012,6 7 0,0
23.08.2017 03:00:00 15,4 14,7 - - 5 3 - - ESE 1013,0 7 0,0
23.08.2017 02:00:00 15,6 14,5 - - 9 5 - - SE 1013,7 10 0,0
23.08.2017 01:00:00 16,5 14,9 - - 9 5 - - ESE 1014,0 15 0,0
23.08.2017 00:00:00 17,6 15,5 - - 15 8 - - SE 1014,1 17 0,0
22.08.2017 23:00:00 18,3 16,2 - - 13 7 - - ESE 1014,4 15 0,0
22.08.2017 22:00:00 18,6 16,8 - - 11 6 - - ESE 1014,7 25 0,0
22.08.2017 21:00:00 19,8 17,2 - - 9 5 - - ESE 1015,1 9 0,0
22.08.2017 20:00:00 20,2 17,1 - - 13 7 - - ESE 1015,2 30 0,0
22.08.2017 19:00:00 20,8 16,9 - - 13 7 - - SE 1015,5 35 0,0
22.08.2017 18:00:00 21,7 17,0 - - 13 7 - - SE 1015,9 50 0,0
22.08.2017 17:00:00 22,2 17,0 - - 13 7 - - SE 1016,2 50 0,0
22.08.2017 16:00:00 22,2 17,0 - - 13 7 - - SSE 1016,7 50 0,0
22.08.2017 15:00:00 23,2 18,2 - - 13 7 - - SE 1017,1 50 0,0
22.08.2017 14:00:00 22,6 18,4 - - 9 5 - - SE 1017,7 30 0,0
22.08.2017 13:00:00 21,1 17,6 - - 11 6 - - S 1018,6 35 0,0
22.08.2017 12:00:00 20,4 17,9 - - 11 6 - - ESE 1018,9 18 0,0
22.08.2017 11:00:00 20,6 17,8 - - 11 6 - - SE 1019,1 24 0,0
22.08.2017 10:00:00 19,1 17,8 17,5 16,5 8 4 - - SSE 1019,5 23 0,2
22.08.2017 09:00:00 17,7 17,6 - - 9 5 - - S 1019,6 17 0,0
22.08.2017 08:00:00 16,9 16,9 - - 9 5 - - SSE 1019,6 5 0,0
22.08.2017 07:00:00 16,8 16,8 - - 5 3 - - SE 1019,6 1,2 0,0
22.08.2017 06:00:00 16,6 16,6 - - 5 3 - - SE 1019,3 0,9 0,0
22.08.2017 05:00:00 16,6 16,6 - - 8 4 - - S 1019,5 0,6 0,0
22.08.2017 04:00:00 16,9 16,9 - - 5 3 - - SSE 1019,7 0,6 0,0
22.08.2017 03:00:00 16,8 16,8 - - 5 3 - - SSE 1019,8 0,5 0,0
22.08.2017 02:00:00 16,3 16,2 - - 5 3 - - S 1019,9 2,4 0,0
22.08.2017 01:00:00 16,0 15,8 - - 5 3 - - SSE 1019,9 2,6 0,0
22.08.2017 00:00:00 16,3 16,0 - - 5 3 - - SSE 1020,3 3,4 0,0
21.08.2017 23:00:00 16,5 16,1 - - 5 3 - - S 1020,5 5 0,0
21.08.2017 22:00:00 17,1 16,4 - - 5 3 - - S 1020,5 14 0,0
21.08.2017 21:00:00 17,3 16,7 - - 8 4 - - SSE 1020,3 8 0,0
21.08.2017 20:00:00 18,2 16,3 - - 5 3 - - SSE 1020,2 45 0,0
21.08.2017 19:00:00 18,8 16,3 - - 8 4 - - S 1020,0 50 0,0
21.08.2017 18:00:00 18,9 16,1 - - 8 4 - - SSE 1020,1 50 0,0
21.08.2017 17:00:00 18,5 15,7 - - 9 5 - - S 1020,3 50 0,0
21.08.2017 16:00:00 18,4 15,5 - - 8 4 - - S 1020,4 50 0,0
21.08.2017 15:00:00 17,9 15,1 - - 9 5 - - SSE 1020,6 50 0,0
21.08.2017 14:00:00 17,1 14,7 - - 8 4 - - SSE 1021,0 50 0,0
21.08.2017 13:00:00 16,6 14,7 - - 9 5 - - SSE 1021,1 50 0,0
21.08.2017 12:00:00 16,1 14,2 - - 8 4 - - SSE 1021,6 50 0,0
21.08.2017 11:00:00 15,8 14,5 - - 8 4 - - ESE 1021,8 35 0,0
21.08.2017 10:00:00 14,9 14,1 17,2 16,5 9 5 - - SE 1021,4 16 0,0
21.08.2017 09:00:00 14,6 14,0 - - 9 5 - - SE 1021,4 16 0,0
21.08.2017 08:00:00 14,0 13,7 - - 8 4 - - ESE 1021,2 7 0,0
21.08.2017 07:00:00 13,5 13,3 - - 5 3 - - SE 1021,1 9 0,0
21.08.2017 06:00:00 13,4 13,2 - - 8 4 - - E 1020,7 6 0,0
21.08.2017 05:00:00 13,4 13,2 - - 9 5 - - ESE 1020,8 7 0,2
21.08.2017 04:00:00 13,4 13,2 - - 9 5 - - ESE 1020,6 3,8 0,0
21.08.2017 03:00:00 13,4 13,1 - - 5 3 - - E 1021,3 5 0,0
21.08.2017 02:00:00 13,5 13,2 - - 5 3 - - E 1021,4 30 0,0
21.08.2017 01:00:00 13,4 13,1 - - 5 3 - - E 1021,7 45 0,0
21.08.2017 00:00:00 13,2 12,9 - - 8 4 - - SSE 1021,1 35 0,0
20.08.2017 23:00:00 13,2 12,9 - - 13 7 - - S 1021,5 28 0,2
20.08.2017 22:00:00 13,4 13,0 - - 15 8 - - S 1021,6 14 0,6
20.08.2017 21:00:00 13,5 12,8 - - 16 9 - - SSW 1022,1 17 0,6
20.08.2017 20:00:00 13,9 13,0 - - 11 6 - - S 1021,9 10 1,0
20.08.2017 19:00:00 15,1 13,6 - - 5 3 - - SSE 1022,2 12 0,8
20.08.2017 18:00:00 15,6 12,7 - - 5 3 - - SW 1022,3 27 0,4
20.08.2017 17:00:00 17,6 9,8 - - 9 5 - - SW 1021,8 35 0,0
20.08.2017 16:00:00 18,4 9,3 - - 11 6 - - SSW 1022,2 45 0,0
20.08.2017 15:00:00 19,5 8,1 - - 11 6 - - SW 1022,3 50 0,0
20.08.2017 14:00:00 18,7 10,0 - - 8 4 - - WSW 1022,6 50 0,0
20.08.2017 13:00:00 18,5 8,8 - - 9 5 - - SW 1022,8 50 0,0
20.08.2017 12:00:00 17,3 9,1 - - 8 4 - - SW 1022,8 50 0,0
20.08.2017 11:00:00 16,5 8,6 - - 9 5 - - WSW 1023,0 50 0,0
20.08.2017 10:00:00 16,3 10,6 16,9 16,5 9 5 - - WSW 1022,8 50 0,0
20.08.2017 09:00:00 14,8 11,3 - - 5 3 - - WSW 1022,4 50 0,0
20.08.2017 08:00:00 12,1 11,5 - - 4 2 - - SSW 1022,4 14 0,0
20.08.2017 07:00:00 8,9 8,4 - - 5 3 - - SSE 1021,9 24 0,0
20.08.2017 06:00:00 9,5 8,7 - - 5 3 - - SSW 1021,5 30 0,0
20.08.2017 05:00:00 10,6 9,5 - - 5 3 - - SW 1021,1 35 0,0
20.08.2017 04:00:00 11,0 9,8 - - 5 3 - - SSW 1021,2 35 0,0
20.08.2017 03:00:00 11,1 9,8 - - 5 3 - - SW 1020,9 40 0,0
20.08.2017 02:00:00 11,5 9,5 - - 4 2 - - SW 1020,8 40 0,0
20.08.2017 01:00:00 12,9 9,7 - - 8 4 - - WSW 1020,3 40 0,0
20.08.2017 00:00:00 13,2 10,1 - - 8 4 - - SW 1020,2 45 0,0
19.08.2017 23:00:00 13,3 9,6 - - 8 4 - - WSW 1019,7 45 0,0
19.08.2017 22:00:00 13,8 9,9 - - 9 5 - - WSW 1019,5 50 0,0
19.08.2017 21:00:00 14,8 9,5 - - 15 8 - - WSW 1019,1 50 0,0
19.08.2017 20:00:00 15,1 9,1 - - 21 11 - - W 1018,3 50 0,0
19.08.2017 19:00:00 15,6 9,2 - - 16 9 - - W 1017,9 50 0,0
19.08.2017 18:00:00 15,9 9,0 - - 21 11 - - W 1017,6 50 0,0
19.08.2017 17:00:00 16,8 9,0 - - 16 9 - - WSW 1017,3 50 0,0
19.08.2017 16:00:00 16,1 9,5 - - 24 13 46 25 W 1017,2 50 0,0
19.08.2017 15:00:00 17,3 9,7 - - 26 14 46 25 W 1016,4 50 0,0
19.08.2017 14:00:00 16,4 9,4 - - 16 9 - - WSW 1016,3 50 0,0
19.08.2017 13:00:00 16,3 9,3 - - 21 11 - - W 1015,9 50 0,0
19.08.2017 12:00:00 16,1 10,4 - - 18 10 - - W 1015,7 50 0,0
19.08.2017 11:00:00 16,2 10,6 - - 18 10 - - WSW 1015,2 50 0,0
19.08.2017 10:00:00 14,7 10,4 17,2 16,7 15 8 - - WSW 1015,2 50 0,0
19.08.2017 09:00:00 13,8 10,9 - - 9 5 - - SW 1014,9 45 0,0
19.08.2017 08:00:00 12,9 10,8 - - 13 7 - - WSW 1014,6 45 0,0
19.08.2017 07:00:00 11,6 10,3 - - 8 4 - - SW 1013,8 35 0,0
19.08.2017 06:00:00 11,6 10,0 - - 13 7 - - W 1013,6 40 0,2
19.08.2017 05:00:00 10,9 10,3 - - 8 4 - - WSW 1012,8 40 0,0
19.08.2017 04:00:00 10,2 9,8 - - 4 2 - - S 1012,5 30 0,0
19.08.2017 03:00:00 10,2 9,9 - - 5 3 - - SW 1012,0 40 0,0
19.08.2017 02:00:00 9,8 9,4 - - 5 3 - - SW 1011,4 40 0,0
19.08.2017 01:00:00 10,2 9,4 - - 5 3 - - WSW 1011,2 30 0,0
19.08.2017 00:00:00 10,7 10,5 - - 8 4 - - W 1010,5 35 0,0
18.08.2017 23:00:00 9,4 8,7 - - 4 2 - - WSW 1009,9 35 0,0
18.08.2017 22:00:00 10,8 10,3 - - 9 5 - - S 1008,9 40 1,8
18.08.2017 21:00:00 11,4 10,7 - - 16 9 - - S 1008,9 2,5 4,8
18.08.2017 20:00:00 14,1 9,1 - - 15 8 - - SW 1009,2 12 0,0
18.08.2017 19:00:00 14,3 8,7 - - 13 7 - - SW 1009,2 50 0,0
18.08.2017 18:00:00 16,6 8,3 - - 13 7 - - WSW 1008,8 50 0,0
18.08.2017 17:00:00 17,7 8,4 - - 13 7 - - WSW 1008,6 50 0,0
18.08.2017 16:00:00 17,2 8,9 - - 16 9 - - WSW 1008,6 50 0,0
18.08.2017 15:00:00 17,3 10,1 - - 15 8 - - SW 1008,5 50 0,0
18.08.2017 14:00:00 16,3 11,1 - - 13 7 50 27 SW 1008,6 50 3,6
18.08.2017 13:00:00 15,9 7,6 - - 18 10 - - W 1008,7 17 0,0
18.08.2017 12:00:00 17,9 7,3 - - 16 9 - - SW 1008,5 50 0,0
18.08.2017 11:00:00 17,5 10,4 - - 11 6 - - WSW 1008,9 50 0,0
18.08.2017 10:00:00 16,0 9,0 17,7 16,5 13 7 - - WSW 1009,2 50 0,0
18.08.2017 09:00:00 15,4 10,0 - - 11 6 - - SW 1008,9 50 0,0
18.08.2017 08:00:00 14,3 10,4 - - 11 6 - - WSW 1008,4 50 0,0
18.08.2017 07:00:00 13,9 11,8 - - 9 5 - - SW 1008,1 35 0,0
18.08.2017 06:00:00 13,8 12,0 - - 11 6 - - SSW 1007,3 35 0,0
18.08.2017 05:00:00 13,8 12,2 - - 13 7 - - SSW 1007,3 30 0,0
18.08.2017 04:00:00 14,2 12,2 - - 21 11 - - SSW 1007,7 30 0,0
18.08.2017 03:00:00 14,4 12,8 - - 15 8 - - S 1007,7 24 0,0
18.08.2017 02:00:00 14,5 12,9 - - 15 8 - - S 1008,2 21 0,0
18.08.2017 01:00:00 14,5 12,7 - - 13 7 - - S 1008,7 23 0,0
18.08.2017 00:00:00 15,0 12,8 - - 16 9 - - SSW 1009,1 26 0,0

tt = temperature
td = dewpoint
tt -20cm = temperature -20cm
tt -100cm = temperature -100cm
ff = wind speed
fx = gusts
dd = wind direction
ppp = reduced air pressure
vv = visibility
rr = precipitation

Next stations